Location: Proctor
(47.8934°N, 114.3048°W)
Time: 21:27:19
(UTC+00:00)

Tiros 1 despin weight - All Passes

Search period start: 25 June 2024 00:00
Search period end: 05 July 2024 00:00
Orbit: 577 x 621 km, 48.2° (Epoch: 24 June)

Date Brightness Start Highest point End Pass type
(mag) Time Alt. Az. Time Alt. Az. Time Alt. Az.
25 Jun - 00:45:47 10° W 00:49:35 26° SW 00:53:22 10° SSE daylight
25 Jun - 18:12:11 10° SSW 18:16:02 27° SE 18:19:55 10° E daylight
25 Jun - 19:52:14 10° WSW 19:56:46 73° SSE 20:01:21 10° E daylight
25 Jun - 21:33:22 10° W 21:37:58 86° N 21:42:34 10° E daylight
25 Jun - 23:14:34 10° W 23:19:03 55° SSW 23:23:30 10° SE daylight
26 Jun - 00:56:33 10° W 00:59:32 17° SW 01:02:30 10° S daylight
26 Jun - 16:44:56 10° SE 16:45:50 11° SE 16:46:45 10° ESE daylight
26 Jun - 18:21:50 10° SW 18:26:04 40° SSE 18:30:21 10° E daylight
26 Jun - 20:02:25 10° WSW 20:07:01 87° S 20:11:37 10° E daylight
26 Jun - 21:43:38 10° W 21:48:14 87° S 21:52:49 10° ESE daylight
26 Jun - 23:24:54 10° W 23:29:10 39° SSW 23:33:24 10° SE daylight
27 Jun - 01:08:41 10° SW 01:09:23 10° SW 01:10:05 10° SW daylight
27 Jun - 16:52:41 10° S 16:55:42 18° SE 16:58:43 10° E daylight
27 Jun - 18:31:44 10° SW 18:36:11 56° SSE 18:40:41 10° E daylight
27 Jun - 20:12:41 10° W 20:17:16 86° N 20:21:52 10° E daylight
27 Jun - 21:53:53 10° W 21:58:27 73° SSW 22:03:01 10° ESE daylight
27 Jun - 23:35:20 10° W 23:39:12 27° SW 23:43:00 10° SSE daylight
28 Jun - 17:01:50 10° SSW 17:05:38 27° SE 17:09:28 10° E daylight
28 Jun - 18:41:48 10° WSW 18:46:21 73° SSE 18:50:56 10° E daylight
28 Jun - 20:22:57 10° W 20:27:32 86° N 20:32:08 10° E daylight
28 Jun - 22:04:09 10° W 22:08:38 56° SSW 22:13:06 10° SE daylight
28 Jun - 23:46:04 10° W 23:49:08 18° SW 23:52:09 10° S daylight
29 Jun - 15:34:56 10° SE 15:35:26 10° SE 15:35:55 10° SE daylight
29 Jun - 17:11:26 10° SW 17:15:38 39° SSE 17:19:54 10° E daylight
29 Jun - 18:52:00 10° WSW 18:56:34 86° S 19:01:10 10° E daylight
29 Jun - 20:33:12 10° W 20:37:47 87° S 20:42:23 10° ESE daylight
29 Jun - 22:14:26 10° W 22:18:44 40° SSW 22:23:00 10° SE daylight
29 Jun - 23:57:57 10° WSW 23:58:58 11° SW 00:00:00 10° SSW daylight
30 Jun - 15:42:20 10° S 15:45:15 17° SE 15:48:12 10° E daylight
30 Jun - 17:21:18 10° SW 17:25:44 55° SSE 17:30:13 10° E daylight
30 Jun - 19:02:14 10° W 19:06:49 86° N 19:11:25 10° E daylight
30 Jun - 20:43:26 10° W 20:48:00 74° SSW 20:52:33 10° ESE daylight
30 Jun - 22:24:52 10° W 22:28:45 28° SW 22:32:36 10° SSE daylight
01 Jul - 15:51:26 10° SSW 15:55:10 26° SE 15:58:58 10° E daylight
01 Jul - 17:31:22 10° WSW 17:35:53 72° SSE 17:40:27 10° E daylight
01 Jul - 19:12:29 10° W 19:17:04 86° N 19:21:40 10° E daylight
01 Jul - 20:53:40 10° W 20:58:10 57° SSW 21:02:38 10° SE daylight
01 Jul - 22:35:34 10° W 22:38:40 18° SW 22:41:46 10° S daylight
02 Jul - 16:01:00 10° SW 16:05:10 38° SSE 16:09:24 10° E daylight
02 Jul - 17:41:32 10° WSW 17:46:05 86° SSE 17:50:40 10° E daylight
02 Jul - 19:22:43 10° W 19:27:18 88° SSW 19:31:54 10° E daylight
02 Jul - 21:03:57 10° W 21:08:15 41° SSW 21:12:32 10° SE daylight
02 Jul - 22:47:15 10° WSW 22:48:30 11° SW 22:49:45 10° SSW daylight
03 Jul - 14:31:57 10° S 14:34:47 17° SE 14:37:39 10° E daylight
03 Jul - 16:10:51 10° SW 16:15:14 54° SSE 16:19:42 10° E daylight
03 Jul - 17:51:45 10° W 17:56:18 86° N 18:00:54 10° E daylight
03 Jul - 19:32:56 10° W 19:37:30 74° SSW 19:42:04 10° ESE daylight
03 Jul - 21:14:20 10° W 21:18:15 28° SW 21:22:09 10° SSE daylight
04 Jul - 14:40:59 10° SSW 14:44:41 25° SE 14:48:25 10° E daylight
04 Jul - 16:20:53 10° WSW 16:25:22 71° SSE 16:29:56 10° E daylight
04 Jul - 18:01:59 10° W 18:06:32 86° N 18:11:08 10° E daylight
04 Jul - 19:43:09 10° W 19:47:39 58° SSW 19:52:08 10° SE daylight
04 Jul - 21:25:01 10° W 21:28:10 19° SW 21:31:19 10° S daylight
